Bar Harbor, ME

1:29 PM EDT on September 26, 2017 (GMT -0400)
Hancock County-Bar Harbor

Weather History for KBHB - January, 2015

Change the Weather History Date:

Tuesday, January 27, 2015

  Actual Average Record
Temperature  
Mean Temperature 12 °F -  
Max Temperature 15 °F 35 °F 59 °F (1950)
Min Temperature 8 °F 18 °F -10 °F (1982)
Degree Days  
Heating Degree Days 54    
Moisture  
Dew Point 10 °F    
Average Humidity 92    
Maximum Humidity 100    
Minimum Humidity 67    
Precipitation  
Precipitation 0.00 in - - ()
Sea Level Pressure  
Sea Level Pressure 29.64 in    
Wind  
Wind Speed 27 mph (NNE)    
Max Wind Speed 38 mph    
Max Gust Speed 58 mph    
Visibility 2 miles    
Events      
Averages and records for this station are not official NWS values.
T = Trace of Precipitation, MM = Missing Value Source: NWS Daily Summary

Daily Weather History Graph

Daily Weather History Graph

Search for Another Location

Airport or City:

Trip Planner

Search our weather history database for the weather conditions in past years. The results will help you decide how hot, cold, wet, or windy it might be!

Date:

Astronomy

Jan. 27, 2015 Rise Set
Actual Time 6:57 AM EST 4:35 PM EST
Civil Twilight 6:26 AM EST 5:06 PM EST
Nautical Twilight 5:50 AM EST 5:41 PM EST
Astronomical Twilight 5:16 AM EST 6:16 PM EST
Moon 10:59 AM EST (1/27) 12:17 AM EST (1/27)
Length of Visible Light 10h 40m
Length of Day
9h 37m
First Quarter, 55% of the Moon is Illuminated
Jan 27
First Quarter
Feb 3
Full
Feb 11
Last Quarter
Feb 18
New
Feb 25
First Quarter

Hourly Weather History & Observations

Time (EST) Temp. Windchill Dew Point Humidity Pressure Visibility Wind Dir Wind Speed Gust Speed Precip Events Conditions
12:15 AM 10.4 °F -8.2 °F 1.4 °F 67% 30.07 in 10.0 mi North 19.6 mph 29.9 mph N/A   Overcast
12:35 AM 10.4 °F -9.5 °F 3.2 °F 73% 30.06 in 10.0 mi NNE 23.0 mph 31.1 mph N/A   Overcast
12:55 AM 10.4 °F -9.1 °F 3.2 °F 73% 30.05 in 10.0 mi NNE 21.9 mph 27.6 mph N/A   Overcast
1:15 AM 10.4 °F -7.7 °F 5.0 °F 79% 30.04 in 10.0 mi NNE 18.4 mph 29.9 mph N/A   Overcast
1:35 AM 10.4 °F -9.1 °F 3.2 °F 73% 30.03 in 10.0 mi NNE 21.9 mph 29.9 mph N/A   Overcast
1:55 AM 10.4 °F -8.6 °F 1.4 °F 67% 30.02 in 10.0 mi NNE 20.7 mph 33.4 mph N/A   Overcast
2:15 AM 10.4 °F -9.5 °F 3.2 °F 73% 29.99 in 7.0 mi NNE 23.0 mph 34.5 mph N/A   Mostly Cloudy
2:35 AM 10.4 °F -9.5 °F 3.2 °F 73% 29.97 in 7.0 mi NNE 23.0 mph 35.7 mph N/A   Overcast
2:55 AM 10.4 °F -9.9 °F 3.2 °F 73% 29.96 in 4.0 mi NNE 24.2 mph 34.5 mph N/A   Overcast
3:15 AM 10.4 °F -11.4 °F 5.0 °F 79% 29.92 in 1.8 mi NNE 28.8 mph 38.0 mph N/A   Overcast
3:35 AM 10.4 °F -11.7 °F 6.8 °F 85% 29.92 in 1.2 mi NNE 29.9 mph 36.8 mph N/A   Overcast
3:55 AM 10.4 °F -11.0 °F 8.6 °F 92% 29.89 in 0.8 mi NNE 27.6 mph 36.8 mph N/A   Overcast
4:15 AM 8.6 °F -14.1 °F 8.6 °F 100% 29.87 in 0.5 mi NNE 29.9 mph 36.8 mph N/A   Overcast
4:35 AM 8.6 °F -15.1 °F 8.6 °F 100% 29.86 in 0.5 mi NNE 33.4 mph 38.0 mph N/A   Overcast
4:55 AM 8.6 °F -14.5 °F 8.6 °F 100% 29.84 in 0.5 mi NNE 31.1 mph 39.1 mph N/A   Overcast
5:15 AM 8.6 °F -14.1 °F 6.8 °F 92% 29.80 in 0.5 mi NNE 29.9 mph 40.3 mph N/A   Overcast
5:35 AM 8.6 °F -14.5 °F 6.8 °F 92% 29.79 in 0.5 mi NNE 31.1 mph 39.1 mph N/A   Overcast
5:55 AM 8.6 °F -14.5 °F 6.8 °F 92% 29.76 in 0.5 mi North 31.1 mph 39.1 mph N/A   Overcast
6:15 AM 8.6 °F -14.1 °F 8.6 °F 100% 29.74 in 0.5 mi North 29.9 mph 38.0 mph N/A   Overcast
6:35 AM 8.6 °F -12.3 °F 8.6 °F 100% 29.74 in 0.5 mi North 24.2 mph 35.7 mph N/A   Overcast
6:55 AM 8.6 °F - 8.6 °F 100% 29.73 in 0.5 mi North - - N/A   Overcast
7:15 AM 10.4 °F -11.4 °F 8.6 °F 92% 29.72 in 0.2 mi North 28.8 mph 36.8 mph N/A   Overcast
7:35 AM 10.4 °F -11.4 °F 10.4 °F 100% 29.69 in 0.2 mi NNE 28.8 mph 36.8 mph N/A   Overcast
7:55 AM 10.4 °F -10.3 °F 10.4 °F 100% 29.71 in 0.2 mi NNE 25.3 mph 32.2 mph N/A   Overcast
8:15 AM 10.4 °F -9.9 °F 8.6 °F 92% 29.73 in 0.2 mi NNE 24.2 mph 33.4 mph N/A   Overcast
8:35 AM 12.2 °F -8.9 °F 10.4 °F 92% 29.71 in 0.2 mi North 28.8 mph 36.8 mph N/A   Overcast
8:55 AM 12.2 °F -9.9 °F 12.2 °F 100% 29.67 in 0.2 mi NNE 32.2 mph 42.6 mph N/A   Overcast
9:15 AM 12.2 °F -10.5 °F 12.2 °F 100% 29.64 in 0.2 mi NNE 34.5 mph 47.2 mph N/A   Overcast
9:35 AM 12.2 °F -10.2 °F 12.2 °F 100% 29.63 in 0.2 mi North 33.4 mph 47.2 mph N/A   Overcast
9:55 AM 12.2 °F -10.8 °F 10.4 °F 92% 29.61 in 0.2 mi NNE 35.7 mph 50.6 mph N/A   Overcast
10:15 AM 12.2 °F -10.8 °F 12.2 °F 100% 29.61 in 0.2 mi NNE 35.7 mph 48.3 mph N/A   Overcast
10:35 AM 12.2 °F -10.8 °F 12.2 °F 100% 29.60 in 0.2 mi NNE 35.7 mph 57.5 mph N/A   Overcast
10:55 AM 12.2 °F -9.9 °F 12.2 °F 100% 29.59 in 0.2 mi NNE 32.2 mph 47.2 mph N/A   Overcast
11:15 AM 12.2 °F -11.0 °F 12.2 °F 100% 29.57 in 0.2 mi NNE 36.8 mph 51.8 mph N/A   Overcast
11:35 AM 12.2 °F -9.6 °F 12.2 °F 100% 29.58 in 0.5 mi NNE 31.1 mph 41.4 mph N/A   Overcast
11:55 AM 12.2 °F -9.9 °F 12.2 °F 100% 29.56 in 0.5 mi NNE 32.2 mph 48.3 mph N/A   Overcast
12:15 PM 12.2 °F -11.0 °F 12.2 °F 100% 29.52 in 0.2 mi NNE 36.8 mph 48.3 mph N/A   Overcast
12:35 PM 12.2 °F -10.5 °F 12.2 °F 100% 29.50 in 0.2 mi NNE 34.5 mph 50.6 mph N/A   Overcast
12:55 PM 12.2 °F -9.6 °F 12.2 °F 100% 29.48 in 0.2 mi NNE 31.1 mph 44.9 mph N/A   Overcast
1:15 PM 12.2 °F -9.6 °F 10.4 °F 92% 29.48 in 0.5 mi NNE 31.1 mph 43.7 mph N/A   Overcast
1:35 PM 14.0 °F -7.4 °F 12.2 °F 93% 29.48 in 0.5 mi NNE 32.2 mph 44.9 mph N/A   Overcast
1:55 PM 14.0 °F -7.1 °F 12.2 °F 93% 29.45 in 0.5 mi NNE 31.1 mph 44.9 mph N/A   Overcast
2:15 PM 14.0 °F -8.3 °F 12.2 °F 93% 29.45 in 0.5 mi NNE 35.7 mph 44.9 mph N/A   Overcast
2:35 PM 14.0 °F -7.7 °F 12.2 °F 93% 29.44 in 0.5 mi NNE 33.4 mph 50.6 mph N/A   Overcast
2:55 PM 14.0 °F -8.8 °F 12.2 °F 93% 29.42 in 0.5 mi NNE 38.0 mph 48.3 mph N/A   Overcast
3:15 PM 14.0 °F -8.3 °F 12.2 °F 93% 29.43 in 0.5 mi NNE 35.7 mph 42.6 mph N/A   Overcast
3:35 PM 14.0 °F -7.7 °F 12.2 °F 93% 29.43 in 0.5 mi NNE 33.4 mph 44.9 mph N/A   Overcast
3:55 PM 14.0 °F -7.4 °F 12.2 °F 93% 29.43 in 0.5 mi NNE 32.2 mph 46.0 mph N/A   Overcast
4:15 PM 14.0 °F -7.4 °F 12.2 °F 93% 29.43 in 0.5 mi NNE 32.2 mph 46.0 mph N/A   Overcast
4:35 PM 14.0 °F -7.7 °F 12.2 °F 93% 29.43 in 0.8 mi NNE 33.4 mph 46.0 mph N/A   Overcast
4:55 PM 14.0 °F -8.0 °F 12.2 °F 93% 29.45 in 0.5 mi NNE 34.5 mph 43.7 mph N/A   Overcast
5:15 PM 14.0 °F -6.5 °F 12.2 °F 93% 29.46 in 1.2 mi NNE 28.8 mph 41.4 mph N/A   Overcast
5:35 PM 14.0 °F -8.0 °F 12.2 °F 93% 29.44 in 1.0 mi NNE 34.5 mph 41.4 mph N/A   Overcast
5:55 PM 14.0 °F -7.1 °F 12.2 °F 93% 29.45 in 1.0 mi NNE 31.1 mph 40.3 mph N/A   Overcast
6:15 PM 14.0 °F -6.8 °F 12.2 °F 93% 29.46 in 1.2 mi NNE 29.9 mph 39.1 mph N/A   Overcast
6:35 PM 14.0 °F -6.2 °F 12.2 °F 93% 29.47 in 1.0 mi NNE 27.6 mph 40.3 mph N/A   Overcast
6:55 PM 14.0 °F -6.5 °F 12.2 °F 93% 29.46 in 1.0 mi NNE 28.8 mph 44.9 mph N/A   Overcast
7:15 PM 14.0 °F -7.1 °F 12.2 °F 93% 29.46 in 1.2 mi NNE 31.1 mph 39.1 mph N/A   Overcast
7:35 PM 14.0 °F -3.9 °F 12.2 °F 93% 29.48 in 1.2 mi NNE 20.7 mph 35.7 mph N/A   Overcast
7:55 PM 14.0 °F -5.5 °F 12.2 °F 93% 29.48 in 1.2 mi North 25.3 mph 38.0 mph N/A   Overcast
8:15 PM 14.0 °F -5.1 °F 12.2 °F 93% 29.49 in 1.2 mi North 24.2 mph 38.0 mph N/A   Overcast
8:35 PM 14.0 °F -5.8 °F 12.2 °F 93% 29.49 in 1.5 mi North 26.5 mph 35.7 mph N/A   Overcast
8:55 PM 15.8 °F -3.4 °F 14.0 °F 93% 29.49 in 2.0 mi North 26.5 mph 36.8 mph N/A   Overcast
9:15 PM 15.8 °F -3.7 °F 14.0 °F 93% 29.49 in 2.0 mi NNE 27.6 mph 39.1 mph N/A   Overcast
9:35 PM 15.8 °F -1.9 °F 14.0 °F 93% 29.49 in 2.0 mi NNE 21.9 mph 36.8 mph N/A   Overcast
9:55 PM 15.8 °F -3.7 °F 14.0 °F 93% 29.49 in 2.0 mi NNE 27.6 mph 36.8 mph N/A   Overcast
10:15 PM 15.8 °F -2.7 °F 14.0 °F 93% 29.50 in 3.0 mi NNE 24.2 mph 34.5 mph N/A   Overcast
10:35 PM 15.8 °F 0.3 °F 12.2 °F 86% 29.51 in 8.0 mi North 16.1 mph 23.0 mph N/A   Overcast
10:55 PM 12.2 °F -3.7 °F 12.2 °F 100% 29.53 in 5.0 mi North 15.0 mph 20.7 mph N/A   Overcast
11:15 PM 12.2 °F -4.3 °F 12.2 °F 100% 29.53 in 4.0 mi North 16.1 mph 24.2 mph N/A   Overcast
11:35 PM 12.2 °F -5.3 °F 12.2 °F 100% 29.53 in 5.0 mi North 18.4 mph 24.2 mph N/A   Overcast
11:55 PM 12.2 °F -5.3 °F 10.4 °F 92% 29.54 in 5.0 mi North 18.4 mph 24.2 mph N/A   Overcast